Long Lake, NY (12847)

7:31 AM EDT on August 31, 2015 (GMT -0400)
Plumley's Garage | | Change Station
CLOSE
Current Station
Personal Weather Station
Location: Long Lake, NY
Elevation: 1650 ft
Nearby Weather Stations

Elev 1650 ft 43.97 °N, 74.42 °W | Updated 8 seconds ago

Clear
Clear
61.1 °F
Feels Like 61.1 °F
N
0.0
Wind Variable Wind from NNE
Gusts 0.0 mph

Today
High -- | Low -- °F
--% Chance of Precip.
Yesterday
High -- | Low -- °F
Precip. -- in
6:19 AM 7:35 PM
Waning Gibbous, 96% visible
Pressure 29.99 in
Visibility 5.0 miles
Clouds Few 1800 ft
Scattered Clouds 3500 ft
Dew Point 57 °F
Humidity 85%
Rainfall 0.00 in
Snow Depth Not available.
UV 0 out of 12
Pollen 9.30 out of 12
Air Quality Not available.
Flu Activity Not available.
METAR KSLK 311120Z AUTO 23005KT 5SM BR FEW018 SCT035 16/16 A2999 RMK AO2 T01610156
Pressure 29.99 in
Visibility 5.0 miles
Clouds Few 1800 ft
Scattered Clouds 3500 ft
Dew Point 57 °F
Humidity 85%
Rainfall 0.00 in
Snow Depth Not available.
UV 0 out of 12
Pollen 9.30 out of 12
Air Quality Not available.
Flu Activity Not available.
METAR KSLK 311120Z AUTO 23005KT 5SM BR FEW018 SCT035 16/16 A2999 RMK AO2 T01610156

10-Day Weather Forecast

×

Almanac

Astronomy

Aug. 31, 2015 Rise Set
Actual Time
Civil Twilight
Nautical Twilight
Astronomical Twilight
Moon
Length of Visible Light
Length of Day
Tomorrow will be .
, % of the Moon is Illuminated

Today's Extremes

State Highs State Lows

Community

WunderPhotos

Upload Photos

1,851,219 photos uploaded!

WunderBlogs® & News

Nearby

Air Quality

  Air Quality AQ Index Pollutant
Not available.

Snow Depth

Station Depth Elevation

Earthquake Activity

City Distance Mag. Time & Date
Minimum magnitude displayed is 2.5.

Coastal Water Temperatures

Place Temperature

Stations

Nearby Weather Stations

Station Location Temp. Windchill Dew Point Humidity Wind Precip. Elev Updated Type